ATLAS AGENA D R/B, 2144

Orbit data source: Space-Track

ATLAS AGENA D R/B, 2144 is space debris in LEO originally from a launch on Fri, 08 Apr 1966 UTC launched from the Air Force Eastern Test Range (AFETR). Debris objects in space refer to the collection of defunct objects orbiting the Earth. Examples of debris include non-operational satellites, rocket bodies, and fragments generated from explosions, collisions, or faulty payload assembly.

Loading next visibility...
Identifier
2144, 1966-031B
Orbit
LEO
Country
Flag of USUS
Related business
Manufacturer
LMSC
Mission
Spacecraft
Bus & Motor
AGENA D, Unknown motor
Mass
769 kg wet, 769 kg dry
Launch date (UTC)
1966-04-08 (60 years ago)
Launch vehicle
Unknown
Launch site
Air Force Eastern Test Range (AFETR)
Object type
Payload
Rocket body
Debris
Shape & HBR
Unknown
Radar Cross Section
Large (>1 m²)

Expand to show TLE details & history
Last TLE update: 3 hours ago

TLE from 3 hours ago
0 ATLAS AGENA D R/B
1 02144U 66031B   26120.66166390  .00000326  00000-0  97828-4 0  9994
2 02144  35.0415 243.9689 0008246 351.7754   8.2801 14.44928297155891
Epoch: 2026-04-30T15:52Z
TLE epoch observation values (Epoch: 2026-04-30T15:52:47.760Z)
Latitude
-0.00002°
Longitude
147.16482°
Altitude
735.402 km
Speed
7.492 km/s
True Right ascension
16h 15m 52s
True Declination
0° 00' 00"
Sunlit
Object was in full shadow at epoch
Visualization orbit readout
Latitude
Unknown
Longitude
Unknown
Altitude
Unknown
Speed
Unknown
Apparent Right ascension
Unknown
Apparent Declination
Unknown
Sunlit
N/A
Visualization observer readout
Local Sidereal Time
02:40:20
Azimuth
Unknown
Elevation
Unknown
Doppler factor
Unknown
Orbital elements
Apogee altitude
751.268 km
Perigee altitude
739.52 km
Semi-major axis
7,123.531 km
Eccentricity
0.00082
Inclination
35.0415°
RAAN
243.9689°
Arg. of periapsis
351.7754°
True anomaly
8.29372°
Mean anomaly
8.2801°
Eccentric anomaly
8.28691°
Mean motion
3.60994 °/min
Orbital period
99.72 mins
BSTAR
0.000097828
Loading maneuver chart data...
Computing Atmospheric mass density...
Loading historical data...
Loading historical data...
Loading historical data...
Loading historical data...
Loading historical data...
Loading historical data...
Loading historical data...
Other satellites on launch #31 in the year 1966 (1966-04-08 UTC)

Documentation

Showing up to 5 results
|